Gadsden, AL

4:08 PM CDT on August 19, 2017 (GMT -0500)
Gadsden Municipal

Weather History for KGAD - November, 2012

Change the Weather History Date:

Sunday, November 25, 2012

  Actual Average Record
Temperature  
Mean Temperature 39 °F -  
Max Temperature 57 °F 58 °F 79 °F (1931)
Min Temperature 21 °F 35 °F 4 °F (1950)
Degree Days  
Heating Degree Days 26    
Moisture  
Dew Point 22 °F    
Average Humidity 60    
Maximum Humidity 93    
Minimum Humidity 23    
Precipitation  
Precipitation 0.00 in - - ()
Sea Level Pressure  
Sea Level Pressure 30.15 in    
Wind  
Wind Speed 1 mph (SSW)    
Max Wind Speed 7 mph    
Max Gust Speed -    
Visibility 10 miles    
Events      
Averages and records for this station are not official NWS values.
T = Trace of Precipitation, MM = Missing Value Source: NWS Daily Summary

Daily Weather History Graph

Daily Weather History Graph

Search for Another Location

Airport or City:

Trip Planner

Search our weather history database for the weather conditions in past years. The results will help you decide how hot, cold, wet, or windy it might be!

Date:

Astronomy

Nov. 25, 2012 Rise Set
Actual Time 6:26 AM CST 4:36 PM CST
Civil Twilight 5:59 AM CST 5:03 PM CST
Nautical Twilight 5:28 AM CST 5:33 PM CST
Astronomical Twilight 4:58 AM CST 6:04 PM CST
Moon 2:48 PM CST (11/25) 3:45 AM CST (11/25)
Length of Visible Light 11h 03m
Length of Day
10h 09m
Waxing Gibbous, 93% of the Moon is Illuminated
Nov 25
Waxing Gibbous
Nov 28
Full
Dec 6
Last Quarter
Dec 13
New
Dec 19
First Quarter

Hourly Weather History & Observations

Time (CST) Temp. Windchill Dew Point Humidity Pressure Visibility Wind Dir Wind Speed Gust Speed Precip Events Conditions
12:35 AM 26.6 °F - 21.2 °F 80% 30.16 in 10.0 mi Calm Calm - N/A   Clear
12:55 AM 26.6 °F - 21.2 °F 80% 30.16 in 10.0 mi Calm Calm - N/A   Clear
1:15 AM 26.6 °F - 21.2 °F 80% 30.16 in 10.0 mi Calm Calm - N/A   Clear
1:35 AM 24.8 °F - 19.4 °F 80% 30.17 in 10.0 mi Calm Calm - N/A   Clear
1:55 AM 24.8 °F - 19.4 °F 80% 30.16 in 10.0 mi Calm Calm - N/A   Clear
2:35 AM 24.8 °F - 19.4 °F 80% 30.18 in 10.0 mi Calm Calm - N/A   Clear
2:55 AM 24.8 °F - 21.2 °F 86% 30.17 in 10.0 mi Calm Calm - N/A   Clear
3:15 AM 24.8 °F - 21.2 °F 86% 30.17 in 10.0 mi Calm Calm - N/A   Clear
3:35 AM 24.8 °F - 19.4 °F 80% 30.17 in 10.0 mi Calm Calm - N/A   Clear
3:55 AM 23.0 °F - 19.4 °F 86% 30.18 in 10.0 mi Calm Calm - N/A   Clear
4:15 AM 23.0 °F - 19.4 °F 86% 30.17 in 10.0 mi Calm Calm - N/A   Clear
4:35 AM 23.0 °F - 19.4 °F 86% 30.17 in 10.0 mi Calm Calm - N/A   Clear
4:55 AM 23.0 °F - 19.4 °F 86% 30.18 in 10.0 mi Calm Calm - N/A   Clear
5:15 AM 24.8 °F - 19.4 °F 80% 30.18 in 10.0 mi Calm Calm - N/A   Clear
5:35 AM 21.2 °F - 19.4 °F 93% 30.19 in 10.0 mi Calm Calm - N/A   Clear
5:55 AM 23.0 °F - 19.4 °F 86% 30.19 in 10.0 mi Calm Calm - N/A   Clear
6:15 AM 23.0 °F - 19.4 °F 86% 30.19 in 10.0 mi Calm Calm - N/A   Clear
6:35 AM 21.2 °F - 19.4 °F 93% 30.18 in 10.0 mi Calm Calm - N/A   Clear
6:55 AM 23.0 °F - 19.4 °F 86% 30.18 in 10.0 mi Calm Calm - N/A   Clear
7:15 AM 24.8 °F - 21.2 °F 86% 30.19 in 10.0 mi Calm Calm - N/A   Clear
7:35 AM 26.6 °F - 23.0 °F 86% 30.19 in 10.0 mi Calm Calm - N/A   Clear
7:55 AM 28.4 °F - 24.8 °F 86% 30.20 in 10.0 mi Calm Calm - N/A   Clear
8:15 AM 32.0 °F - 24.8 °F 75% 30.20 in 10.0 mi Calm Calm - N/A   Clear
8:35 AM 33.8 °F - 24.8 °F 70% 30.20 in 10.0 mi Calm Calm - N/A   Clear
8:55 AM 35.6 °F - 26.6 °F 70% 30.21 in 10.0 mi Calm Calm - N/A   Clear
9:15 AM 37.4 °F - 26.6 °F 65% 30.22 in 10.0 mi Calm Calm - N/A   Clear
9:35 AM 39.2 °F - 26.6 °F 61% 30.22 in 10.0 mi Calm Calm - N/A   Clear
9:55 AM 42.8 °F - 26.6 °F 53% 30.22 in 10.0 mi Calm Calm - N/A   Clear
10:15 AM 44.6 °F - 26.6 °F 49% 30.21 in 10.0 mi Calm Calm - N/A   Clear
10:35 AM 46.4 °F 45.2 °F 26.6 °F 46% 30.20 in 10.0 mi East 3.5 mph - N/A   Clear
10:55 AM 48.2 °F - 26.6 °F 43% 30.19 in 10.0 mi Calm Calm - N/A   Clear
11:15 AM 48.2 °F - 23.0 °F 37% 30.17 in 10.0 mi Calm Calm - N/A   Clear
11:35 AM 50.0 °F - 23.0 °F 35% 30.16 in 10.0 mi SSW 5.8 mph - N/A   Clear
11:55 AM 51.8 °F - 21.2 °F 30% 30.15 in 10.0 mi Calm Calm - N/A   Clear
12:15 PM 53.6 °F - 19.4 °F 26% 30.14 in 10.0 mi WSW 3.5 mph - N/A   Clear
12:35 PM 53.6 °F - 19.4 °F 26% 30.13 in 10.0 mi Calm Calm - N/A   Clear
12:55 PM 55.4 °F - 19.4 °F 25% 30.12 in 10.0 mi SSW 4.6 mph - N/A   Clear
1:15 PM 55.4 °F - 19.4 °F 25% 30.11 in 10.0 mi WSW 4.6 mph - N/A   Clear
1:35 PM 57.2 °F - 21.2 °F 25% 30.10 in 10.0 mi WSW 5.8 mph - N/A   Clear
1:55 PM 57.2 °F - 21.2 °F 25% 30.10 in 10.0 mi WSW 5.8 mph - N/A   Clear
2:15 PM 57.2 °F - 19.4 °F 23% 30.09 in 10.0 mi SSW 5.8 mph - N/A   Clear
2:35 PM 57.2 °F - 19.4 °F 23% 30.09 in 10.0 mi SW 5.8 mph - N/A   Clear
2:55 PM 57.2 °F - 19.4 °F 23% 30.09 in 10.0 mi SW 6.9 mph - N/A   Clear
3:15 PM 57.2 °F - 19.4 °F 23% 30.08 in 10.0 mi Calm Calm - N/A   Clear
3:35 PM 57.2 °F - 19.4 °F 23% 30.08 in 10.0 mi SW 5.8 mph - N/A   Clear
3:55 PM 57.2 °F - 19.4 °F 23% 30.08 in 10.0 mi SSW 3.5 mph - N/A   Clear
4:15 PM 55.4 °F - 19.4 °F 25% 30.08 in 10.0 mi South 3.5 mph - N/A   Clear
4:35 PM 53.6 °F - 19.4 °F 26% 30.08 in 10.0 mi South 3.5 mph - N/A   Clear
4:55 PM 51.8 °F - 21.2 °F 30% 30.09 in 10.0 mi South 3.5 mph - N/A   Clear
5:15 PM 48.2 °F - 21.2 °F 34% 30.09 in 10.0 mi South 3.5 mph - N/A   Clear
5:35 PM 48.2 °F - 23.0 °F 37% 30.09 in 10.0 mi South 3.5 mph - N/A   Clear
5:55 PM 44.6 °F - 23.0 °F 43% 30.10 in 10.0 mi Calm Calm - N/A   Clear
6:15 PM 41.0 °F - 24.8 °F 53% 30.10 in 10.0 mi Calm Calm - N/A   Clear
6:35 PM 39.2 °F - 24.8 °F 56% 30.10 in 10.0 mi Calm Calm - N/A   Clear
6:55 PM 37.4 °F - 24.8 °F 60% 30.11 in 10.0 mi Calm Calm - N/A   Clear
7:15 PM 37.4 °F - 24.8 °F 60% 30.11 in 10.0 mi Calm Calm - N/A   Clear
7:35 PM 37.4 °F - 24.8 °F 60% 30.11 in 10.0 mi Calm Calm - N/A   Clear
8:15 PM 35.6 °F - 24.8 °F 65% 30.12 in 10.0 mi Calm Calm - N/A   Clear
8:35 PM 35.6 °F - 24.8 °F 65% 30.12 in 10.0 mi Calm Calm - N/A   Clear
8:55 PM 35.6 °F - 24.8 °F 65% 30.12 in 10.0 mi Calm Calm - N/A   Clear
9:15 PM 33.8 °F - 24.8 °F 70% 30.12 in 10.0 mi Calm Calm - N/A   Clear
9:35 PM 33.8 °F - 24.8 °F 70% 30.13 in 10.0 mi Calm Calm - N/A   Clear
9:55 PM 33.8 °F - 24.8 °F 70% 30.12 in 10.0 mi Calm Calm - N/A   Clear
10:15 PM 30.2 °F - 24.8 °F 80% 30.12 in 10.0 mi Calm Calm - N/A   Clear
10:35 PM 30.2 °F - 24.8 °F 80% 30.13 in 10.0 mi Calm Calm - N/A   Clear
10:55 PM 30.2 °F - 24.8 °F 80% 30.13 in 10.0 mi Calm Calm - N/A   Clear
11:15 PM 32.0 °F - 24.8 °F 75% 30.13 in 10.0 mi Calm Calm - N/A   Clear
11:35 PM 30.2 °F - 24.8 °F 80% 30.13 in 10.0 mi Calm Calm - N/A   Clear
11:55 PM 30.2 °F - 24.8 °F 80% 30.13 in 10.0 mi Calm Calm - N/A   Clear